Toby Batshuayi

Chefscout - KAA Gent
4 Jun 2028
Sonntag
Verarbeitung

Persönlichkeit

Anpassungsfähigkeit (1) Ehrgeiz (10) Kontroverse (6) Loyalität (2) Druck (8) Professionalität (5) Fairness (19) Temperament (1)

Profil

Trainerstil Demokratisch
Lizenz Nationale A
Entschlossenheit 9
Menschenführung 14
Motivation 6
Disziplin 11
Arbeitszufriedenheit
100%
Ermüdung
0%
Rolle Chefscout
Gehalt 107.5K p/W
Vertrag 14.03.2029

Leistung

Verhalten Gut
Trainingseffektivität
43%
Spielerentwicklung
70%
Verletzungsprävention
30%
Taktische Umsetzung
45%

Letzte Ereignisse

Spieler begutachtet jetzt
Spieler begutachtet jetzt
Spieler begutachtet jetzt

Aktuell beobachtet

62
Spieler Verein Status Fähigkeit Vertrauen Beobachtet Zuletzt beobachtet Letzte Stimme
Eliezer Mayenda FC Nantes Aktiv 143 / 147 40% 2 03.06.2028 -
Andrés Martín Racing Santander Aktiv 146 / 136 40% 1 03.06.2028 -
Jorge Pascual Granada Aktiv 139 / 145 40% 1 03.06.2028 -
Esteban Lepaul Stade Rennais Aktiv 148 / 141 40% 5 02.06.2028 -
Ismaïla Sarr Crystal Palace Aktiv 153 / 149 40% 1 02.06.2028 -
Lorenzo Colombo Genoa Aktiv 143 / 143 40% 1 02.06.2028 -
Josh King Chelsea Aktiv 143 / 154 40% 1 02.06.2028 -
Lennon Miller Udinese Aktiv 139 / 148 40% 1 02.06.2028 -
Héctor Fort Real Sociedad Aktiv 144 / 147 40% 1 02.06.2028 -
Jason Witsel Mouscron Bericht bereit 127 / 135 83% 1 01.06.2028 -
Josh Sargent Toronto FC Aktiv 139 / 132 40% 5 30.01.2028 -
Yassir Zabiri Stade Rennais Aktiv 136 / 139 40% 4 30.01.2028 -
Adrián Liso Zaragoza Aktiv 132 / 139 40% 2 30.01.2028 -
Matías Fernández-Pardo LOSC Lille Aktiv 148 / 145 40% 3 29.01.2028 -
Sorriso Famalicao Aktiv 138 / 132 40% 2 29.01.2028 -
Pablo Pagis Paris FC Aktiv 132 / 137 40% 1 29.01.2028 -
Luca Langoni Besiktas Aktiv 139 / 135 40% 2 28.01.2028 -
Iván Romero Levante Aktiv 143 / 145 40% 3 28.01.2028 -
Ansu Fati Monaco Aktiv 150 / 144 40% 2 26.01.2028 -
Talles Magno Stade Rennais Aktiv 140 / 140 40% 2 25.01.2028 -
Luciano Gondou Lokomotiv Moscow Aktiv 133 / 130 40% 1 25.01.2028 -
Amine Gouiri Olympique de Marseille Aktiv 154 / 148 40% 2 24.01.2028 -
Luca Koleosho Paris FC Aktiv 139 / 135 40% 3 24.01.2028 -
Mao Hosoya Kawasaki Frontale Aktiv 133 / 134 40% 4 23.01.2028 -
Marcelo Ryan FC Tokyo Aktiv 125 / 135 40% 3 20.01.2028 -
Sambou Soumano FC Lorient Aktiv 135 / 136 40% 1 16.01.2028 -
Kaio Jorge Cruzeiro Aktiv 144 / 148 40% 1 15.01.2028 -
Jonathan Dubasin Osasuna Aktiv 146 / 151 40% 2 08.01.2028 -
Mohamed-Ali Cho Hull City Aktiv 144 / 145 40% 1 07.01.2028 -
Hamza Igamane LOSC Lille Aktiv 146 / 144 40% 2 06.01.2028 -
Mateusz Bogusz Houston Dynamo Aktiv 127 / 129 40% 1 06.01.2028 -
Chukwubuikem Ikwuemesi OH Leuven Aktiv 121 / 125 79% 1 02.01.2028 Befürworten
Joaquín Panichelli RC Strasbourg Aktiv 152 / 141 40% 1 01.01.2028 -
Elias Baum Eintracht Frankfurt Aktiv 130 / 131 40% 2 05.07.2027 -
Daniel Banjaqui Benfica Aktiv 109 / 131 40% 1 05.07.2027 -
Bahmed Deuff FC Metz Aktiv 112 / 119 40% 2 28.06.2027 -
Alexis Vossah Toulouse FC Aktiv 117 / 136 40% 1 28.06.2027 -
Christ Inao Oulaï Fiorentina Aktiv 140 / 141 40% 1 21.06.2027 -
Honest Ahanor Fiorentina Aktiv 131 / 138 40% 1 21.06.2027 -
Jaydee Canvot Crystal Palace Aktiv 128 / 145 40% 1 14.06.2027 -
Jakob Napoleon Romsaas Charleroi Aktiv 117 / 123 72% 1 07.06.2027 Befürworten
Caleb Yirenkyi Coventry City Aktiv 143 / 137 40% 1 02.06.2027 -
Mattia Mannini Juve Stabia Aktiv 107 / 121 40% 1 02.06.2027 -
Samed Baždar Sint-Truiden Aktiv 122 / 126 40% 1 01.06.2027 Mehr Infos nötig
Dom Ballard Leyton Orient Aktiv 119 / 118 40% 1 01.06.2027 -
Mohammed El Hankouri Standard Liege Aktiv 133 / 134 40% 1 11.01.2027 -
Musa Barrow Al-Khaleej Aktiv 136 / 134 40% 2 07.01.2027 -
Taiwo Awoniyi Coventry City Aktiv 140 / 132 40% 1 07.01.2027 -
George Hirst Stoke City Aktiv 129 / 131 40% 1 06.01.2027 -
Luke McNally Bristol City Aktiv 135 / 130 40% 1 01.01.2027 -
Agustín Fontana Hajduk Split Aktiv 121 / 123 40% 1 25.08.2026 -
Timo Werner San Jose Earthquakes Aktiv 126 / 140 40% 1 25.08.2026 -
Jesus Ferreira Seattle Sounders Aktiv 131 / 125 40% 1 20.08.2026 -
Danylo Sikan Anderlecht Aktiv 126 / 134 40% 1 19.08.2026 -
Alexander Aravena Portland Timbers Aktiv 121 / 138 40% 2 17.08.2026 -
Sam Surridge Nashville SC Aktiv 126 / 140 40% 1 17.08.2026 -
Pape Diong Westerlo Aktiv 104 / 122 72% 1 10.08.2026 Befürworten
Bongani Kekana SuperSport United Aktiv 132 / 131 40% 1 10.08.2026 -
Kévin Denkey FC Cincinnati Aktiv 121 / 114 40% 1 07.08.2026 -
Martín Ojeda Orlando City Aktiv 121 / 142 40% 1 04.08.2026 -
Issa Diop Ipswich Town Aktiv 127 / 133 40% 1 01.08.2026 -
Maxime Lopez Paris FC Aktiv 130 / 133 40% 1 01.08.2026 -